Oberbuscherhof, Germany

4:16 PM CEST on May 23, 2017 (GMT +0200)
Oberbuscherhof

Weather History for 10400 - April, 2013

Change the Weather History Date:

Thursday, April 4, 2013

  Actual Average Record
Temperature  
Mean Temperature 39 °F -  
Max Temperature 45 °F 58 °F - ()
Min Temperature 33 °F 41 °F - ()
Degree Days  
Heating Degree Days 26    
Moisture  
Dew Point 25 °F    
Average Humidity 57    
Maximum Humidity 70    
Minimum Humidity 40    
Precipitation  
Precipitation 0.00 in - - ()
Sea Level Pressure  
Sea Level Pressure 29.89 in    
Wind  
Wind Speed 11 mph ()    
Max Wind Speed 16 mph    
Max Gust Speed -    
Visibility 8.7 miles    
Events      
T = Trace of Precipitation, MM = Missing Value Source: Averaged Metar Reports

Daily Weather History Graph

Daily Weather History Graph

Search for Another Location

Airport or City:

Trip Planner

Search our weather history database for the weather conditions in past years. The results will help you decide how hot, cold, wet, or windy it might be!

Date:

Astronomy

Apr. 04, 2013 Rise Set
Actual Time 7:01 AM CEST 8:11 PM CEST
Civil Twilight 6:27 AM CEST 8:45 PM CEST
Nautical Twilight 5:46 AM CEST 9:26 PM CEST
Astronomical Twilight 5:02 AM CEST 10:11 PM CEST
Moon 3:56 AM CEST (4/4) 1:33 PM CEST (4/4)
Length of Visible Light 14h 17m
Length of Day
13h 09m
Last Quarter, 36% of the Moon is Illuminated
Apr 4
Last Quarter
Apr 10
New
Apr 18
First Quarter
Apr 25
Full
May 2
Last Quarter

Hourly Weather History & Observations

Time (CEST) Temp. Windchill Dew Point Humidity Pressure Visibility Wind Dir Wind Speed Gust Speed Precip Events Conditions
12:00 AM 36 °F - 22 °F 44% 29.98 in 16 mi East 11.2 mph - -   Mostly Cloudy
12:20 AM 35.6 °F 28.0 °F 21.2 °F 56% 29.95 in 6.2 mi East 10.4 mph - N/A   Mostly Cloudy
12:50 AM 35.6 °F 27.5 °F 21.2 °F 56% 29.95 in 6.2 mi ENE 11.5 mph - N/A   Mostly Cloudy
1:00 AM 36 °F - 22 °F 44% 29.97 in 16 mi East 11.2 mph - -   Mostly Cloudy
1:20 AM 35.6 °F 27.5 °F 21.2 °F 56% 29.95 in 6.2 mi East 11.5 mph - N/A   Mostly Cloudy
1:50 AM 35.6 °F 29.2 °F 21.2 °F 56% 29.95 in 6.2 mi East 8.1 mph - N/A   Mostly Cloudy
2:00 AM 35 °F - 22 °F 46% 29.97 in 16 mi East 8.9 mph - -   Mostly Cloudy
2:20 AM 35.6 °F 29.2 °F 21.2 °F 56% 29.95 in 6.2 mi East 8.1 mph - N/A   Mostly Cloudy
2:50 AM 35.6 °F 27.1 °F 19.4 °F 52% 29.95 in 6.2 mi East 12.7 mph - N/A   Mostly Cloudy
3:00 AM 35 °F - 21 °F 44% 29.96 in 16 mi East 11.2 mph - -   Mostly Cloudy
3:20 AM 35.6 °F 27.5 °F 19.4 °F 52% 29.92 in 6.2 mi ENE 11.5 mph - N/A   Mostly Cloudy
3:50 AM 35.6 °F 28.0 °F 19.4 °F 52% 29.92 in 6.2 mi ENE 10.4 mph - N/A   Mostly Cloudy
4:00 AM 35 °F - 21 °F 44% 29.94 in 16 mi East 8.9 mph - -   Mostly Cloudy
4:20 AM 35.6 °F 28.0 °F 21.2 °F 56% 29.92 in 6.2 mi ENE 10.4 mph - N/A   Mostly Cloudy
4:50 AM 33.8 °F 25.3 °F 21.2 °F 60% 29.92 in 6.2 mi ENE 11.5 mph - N/A   Mostly Cloudy
5:20 AM 33.8 °F 24.8 °F 21.2 °F 60% 29.89 in 6.2 mi ENE 12.7 mph - N/A   Mostly Cloudy
5:50 AM 33.8 °F 24.8 °F 21.2 °F 60% 29.89 in 6.2 mi ENE 12.7 mph - N/A   Mostly Cloudy
6:00 AM 34 °F - 23 °F 53% 29.92 in 16 mi ENE 11.2 mph - -   Mostly Cloudy
6:20 AM 33.8 °F 26.4 °F 23.0 °F 65% 29.89 in 6.2 mi NE 9.2 mph - N/A   Mostly Cloudy
6:50 AM 33.8 °F 26.4 °F 23.0 °F 65% 29.89 in 6.2 mi ENE 9.2 mph - N/A   Mostly Cloudy
7:00 AM 34 °F - 24 °F 56% 29.92 in 16 mi NE 8.9 mph - -   Mostly Cloudy
7:20 AM 33.8 °F 26.4 °F 23.0 °F 65% 29.89 in 6.2 mi NE 9.2 mph - N/A   Mostly Cloudy
7:50 AM 33.8 °F 26.4 °F 24.8 °F 70% 29.92 in 6.2 mi ENE 9.2 mph - N/A   Mostly Cloudy
8:00 AM 34 °F - 25 °F 60% 29.93 in 12 mi ENE 6.7 mph - -   Mostly Cloudy
8:20 AM 33.8 °F 25.8 °F 24.8 °F 70% 29.92 in 6.2 mi NE 10.4 mph - N/A   Mostly Cloudy
8:50 AM 35.6 °F 27.5 °F 24.8 °F 65% 29.89 in 6.2 mi ENE 11.5 mph - N/A   Mostly Cloudy
9:00 AM 35 °F - 26 °F 61% 29.92 in 11 mi ENE 11.2 mph - -   Mostly Cloudy
9:20 AM 35.6 °F 26.6 °F 24.8 °F 65% 29.89 in 6.2 mi NE 13.8 mph - N/A   Mostly Cloudy
9:50 AM 35.6 °F 26.6 °F 26.6 °F 70% 29.89 in 6.2 mi ENE 13.8 mph - N/A   Mostly Cloudy
10:00 AM 36 °F - 27 °F 59% 29.92 in 9 mi ENE 13.4 mph - -   Mostly Cloudy
10:20 AM 37.4 °F 28.9 °F 26.6 °F 65% 29.89 in 6.2 mi ENE 13.8 mph - N/A   Mostly Cloudy
10:50 AM 37.4 °F 28.9 °F 26.6 °F 65% 29.89 in 6.2 mi ENE 13.8 mph - N/A   Mostly Cloudy
11:20 AM 37.4 °F 29.3 °F 26.6 °F 65% 29.89 in 6.2 mi ENE 12.7 mph - N/A   Mostly Cloudy
11:50 AM 37.4 °F 28.5 °F 26.6 °F 65% 29.89 in 6.2 mi ENE 15.0 mph - N/A   Mostly Cloudy
12:00 PM 38 °F - 27 °F 54% 29.92 in 8 mi East 13.4 mph - -   Mostly Cloudy
12:20 PM 37.4 °F 28.5 °F 26.6 °F 65% 29.89 in 6.2 mi NE 15.0 mph - N/A   Mostly Cloudy
12:50 PM 37.4 °F 29.8 °F 26.6 °F 65% 29.89 in 6.2 mi ENE 11.5 mph - N/A   Mostly Cloudy
1:00 PM 38 °F - 28 °F 55% 29.91 in 12 mi ENE 11.2 mph - -   Mostly Cloudy
1:20 PM 39.2 °F 31.6 °F 26.6 °F 61% 29.89 in 6.2 mi ENE 12.7 mph - N/A   Mostly Cloudy
1:50 PM 39.2 °F 30.8 °F 26.6 °F 61% 29.89 in 6.2 mi East 15.0 mph - N/A   Mostly Cloudy
2:00 PM 39 °F - 27 °F 51% 29.90 in 12 mi ENE 13.4 mph - -   Mostly Cloudy
2:20 PM 39.2 °F 31.6 °F 26.6 °F 61% 29.89 in 6.2 mi ENE 12.7 mph - N/A   Mostly Cloudy
2:50 PM 42.8 °F 35.8 °F 26.6 °F 53% 29.86 in 6.2 mi ENE 13.8 mph - N/A   Mostly Cloudy
3:00 PM 42 °F - 27 °F 43% 29.89 in 12 mi ENE 15.7 mph - -   Mostly Cloudy
3:20 PM 42.8 °F 36.6 °F 28.4 °F 57% 29.86 in 6.2 mi NE 11.5 mph - N/A   Mostly Cloudy
3:50 PM 44.6 °F 38.8 °F 28.4 °F 53% 29.83 in 6.2 mi ENE 11.5 mph - N/A   Mostly Cloudy
4:00 PM 45 °F - 28 °F 40% 29.86 in 12 mi East 11.2 mph - -   Mostly Cloudy
4:20 PM 44.6 °F 38.4 °F 26.6 °F 49% 29.83 in 6.2 mi East 12.7 mph - N/A   Mostly Cloudy
4:50 PM 42.8 °F 35.8 °F 26.6 °F 53% 29.83 in 6.2 mi ENE 13.8 mph - N/A   Mostly Cloudy
5:20 PM 42.8 °F 35.1 °F 26.6 °F 53% 29.83 in 6.2 mi NE 16.1 mph - N/A   Mostly Cloudy
5:50 PM 44.6 °F 38.1 °F 26.6 °F 49% 29.83 in - ENE 13.8 mph - N/A   Clear
6:00 PM 44 °F - 28 °F 40% 29.84 in 12 mi NE 13.4 mph - -   Partly Cloudy
6:20 PM 42.8 °F 35.4 °F 26.6 °F 53% 29.83 in - NNE 15.0 mph - N/A   Clear
6:50 PM 42.8 °F 35.4 °F 26.6 °F 53% 29.80 in - NE 15.0 mph - N/A   Clear
7:00 PM 43 °F - 27 °F 41% 29.83 in 12 mi NE 13.4 mph - -   Clear
7:20 PM 42.8 °F 35.8 °F 26.6 °F 53% 29.80 in - NE 13.8 mph - N/A   Clear
7:50 PM 41.0 °F 33.9 °F 26.6 °F 57% 29.83 in - NE 12.7 mph - N/A   Clear
8:00 PM 42 °F - 28 °F 45% 29.83 in 12 mi NE 11.2 mph - -   Clear
8:20 PM 41.0 °F 33.1 °F 26.6 °F 57% 29.83 in - NE 15.0 mph - N/A   Clear
8:50 PM 41.0 °F 33.1 °F 26.6 °F 57% 29.83 in - NE 15.0 mph - N/A   Clear
9:00 PM 40 °F - 28 °F 50% 29.84 in 12 mi NE 13.4 mph - -   Clear
9:20 PM 39.2 °F 31.2 °F 26.6 °F 61% 29.83 in - NE 13.8 mph - N/A   Clear
9:50 PM 39.2 °F 31.2 °F 26.6 °F 61% 29.83 in - NE 13.8 mph - N/A   Clear
10:00 PM 39 °F - 28 °F 53% 29.85 in 12 mi NE 11.2 mph - -   Clear
10:20 PM 39.2 °F 31.6 °F 26.6 °F 61% 29.83 in - NE 12.7 mph - N/A   Clear
10:50 PM 37.4 °F 30.3 °F 26.6 °F 65% 29.83 in - NE 10.4 mph - N/A   Clear
11:20 PM 37.4 °F 31.4 °F 26.6 °F 65% 29.83 in - NE 8.1 mph - N/A   Clear
11:50 PM 35.6 °F 29.2 °F 26.6 °F 70% 29.83 in - NE 8.1 mph - N/A   Clear